Theta_e
293 285 283 282 282 284 288 290 292 292 291 289 289 287 287 285 286 288 289 293 293 290 289 289 290 291 293 294 297 300 301 301 300 298 297 297 297 297 298 301 305 306 307 309 311 314 316 320 322 322 323 323 324 325 326 325 326 327 327 326 325 326 327 326 325 325 324 323 323 323 324 324 325 324 325 325 325 325 326 325 325 325 325 324 324 323
294 285 283 284 285 287 288 289 290 290 291 290 288 286 286 285 285 290 291 293 293 290 287 288 288 289 291 293 295 297 297 298 299 300 299 298 298 297 297 299 302 305 306 308 308 310 314 317 320 322 322 321 321 323 325 325 325 326 327 326 326 326 326 327 326 326 325 325 325 324 324 325 325 325 323 324 325 326 326 326 325 325 325 325 324 323
283 285 290 288 290 289 289 288 288 288 287 287 286 285 284 284 286 290 290 291 290 292 288 286 288 289 291 293 295 295 296 296 296 297 297 297 297 298 298 297 299 301 303 306 308 308 312 315 318 320 321 322 323 324 324 325 325 325 326 327 327 327 326 327 327 326 325 326 326 326 325 326 325 327 326 326 326 326 326 326 326 325 325 325 325 324
279 281 288 291 290 289 288 288 287 286 286 285 283 282 281 285 285 282 289 291 291 291 287 289 287 288 290 292 293 295 296 296 298 298 299 299 298 299 300 300 301 301 303 304 305 308 310 313 316 317 319 321 322 322 323 324 324 325 325 326 327 327 327 327 327 325 327 327 327 327 326 323 326 324 325 326 325 325 325 325 326 326 326 325 325 325
279 285 290 291 290 290 287 286 286 284 283 283 284 283 283 283 285 286 287 290 292 291 289 287 286 287 286 289 290 293 295 296 298 298 297 298 299 299 300 300 301 301 302 303 304 305 308 310 313 317 319 320 321 322 323 324 324 325 325 326 327 327 327 327 326 326 327 326 324 325 321 320 320 320 320 321 324 325 325 325 325 326 326 326 325 325
284 288 291 288 288 289 288 285 285 285 281 282 284 286 286 286 286 286 287 288 285 284 287 287 280 278 282 286 289 292 293 294 295 295 296 298 298 298 298 299 300 301 301 302 303 304 306 311 313 315 317 318 319 321 323 324 325 325 325 326 326 327 327 327 327 327 326 326 325 324 323 322 322 322 321 321 323 324 324 324 327 326 326 326 325 325
287 290 288 286 286 286 287 287 288 288 283 281 282 286 287 287 286 286 285 285 279 279 284 289 279 276 279 286 286 288 289 291 293 294 295 296 297 298 298 298 299 300 300 301 302 302 304 308 312 313 315 317 318 320 322 323 324 325 326 325 326 326 327 328 327 327 325 326 325 325 324 324 323 322 323 325 325 325 326 326 325 326 327 326 326 325
290 288 288 286 285 284 285 285 288 289 285 281 283 287 287 287 287 287 286 285 281 282 287 288 285 279 280 285 287 287 287 289 290 293 294 295 296 297 298 300 300 301 301 301 302 303 305 308 312 314 316 317 319 320 320 321 322 323 324 325 325 326 325 327 327 327 326 325 325 325 325 324 324 323 323 324 325 325 324 324 325 325 326 326 326 326
288 287 286 284 283 281 281 285 288 289 286 284 289 291 287 289 289 288 287 285 282 284 282 283 285 280 278 282 287 290 288 288 290 292 294 294 295 296 298 299 300 301 301 302 302 303 305 307 311 314 316 317 319 320 320 320 321 322 323 323 324 325 325 326 326 326 326 325 325 325 325 324 324 325 325 325 323 323 323 323 324 324 325 325 326 326
288 291 291 289 284 280 283 286 287 290 286 287 290 291 290 289 288 289 287 286 285 283 279 282 284 277 280 280 285 286 286 287 288 290 293 294 295 296 297 298 299 301 301 302 302 303 305 306 308 313 316 316 318 320 321 321 321 321 321 322 322 324 325 325 326 325 326 325 324 324 324 323 324 324 324 324 323 322 323 323 323 324 324 325 325 326
285 290 295 291 286 286 285 287 288 290 290 291 289 287 285 284 282 281 282 284 281 278 280 284 286 283 277 281 283 283 284 287 287 289 291 293 295 296 296 297 298 300 301 301 301 303 304 306 306 309 311 314 315 316 318 318 319 320 320 321 321 322 324 324 324 325 325 325 325 324 324 324 323 324 323 322 322 321 321 322 323 323 324 325 325 325
281 283 285 285 291 291 291 287 288 289 290 288 284 283 283 281 283 279 276 280 277 276 281 282 284 285 278 282 284 287 288 288 289 289 290 292 293 295 296 297 297 298 299 300 300 301 302 304 305 305 307 310 311 312 315 316 316 316 318 319 320 320 321 322 323 323 324 324 324 324 324 324 324 324 323 322 321 321 321 321 322 323 324 324 324 325
276 279 281 285 290 290 288 286 286 286 284 284 282 281 274 270 272 271 276 271 275 274 277 281 284 281 282 286 289 291 292 294 294 293 293 293 294 295 296 296 296 296 296 297 299 301 302 302 304 304 305 306 307 309 309 312 314 315 315 315 317 319 320 321 322 322 322 323 323 323 323 323 323 323 323 322 321 321 320 320 320 320 321 322 322 323
275 278 281 283 284 287 287 280 281 280 281 284 281 278 274 270 271 270 271 270 275 277 278 281 281 278 281 286 289 290 292 294 295 296 296 296 295 296 297 298 298 298 297 298 299 300 301 302 303 304 305 304 304 305 306 306 306 310 313 313 313 315 316 318 320 321 321 322 323 323 323 323 322 322 322 322 321 321 320 320 319 319 320 320 321 322
266 268 277 281 278 287 285 284 282 283 284 284 284 282 277 278 271 268 267 266 270 274 276 278 275 270 277 279 287 288 290 292 293 295 296 296 296 296 297 297 297 297 298 298 298 300 301 302 302 302 303 303 303 303 304 305 306 307 309 312 312 312 312 312 315 318 319 321 322 322 322 322 321 321 321 321 321 320 319 319 319 319 319 319 319 321
272 273 279 283 283 285 284 287 287 285 282 282 286 287 280 277 281 273 269 266 266 268 270 275 275 275 281 287 289 290 289 290 293 293 293 294 295 295 296 297 298 299 299 299 297 298 299 299 299 300 301 301 302 302 301 302 302 305 308 310 311 312 312 311 311 312 315 318 319 320 321 321 321 319 319 319 318 318 319 319 318 319 319 319 319 320
275 272 278 282 283 285 286 288 286 285 272 281 281 275 280 286 280 276 279 278 275 273 270 277 279 280 285 288 289 289 288 289 290 291 291 291 292 292 293 295 296 297 297 298 297 297 298 297 296 297 299 300 300 300 301 302 301 302 304 305 307 308 307 309 310 311 311 312 312 315 317 319 319 320 319 319 319 318 318 318 318 318 319 319 319 320
272 273 278 279 280 283 288 287 287 287 285 279 276 279 285 283 278 277 272 276 275 273 275 280 275 276 276 274 282 284 286 288 288 289 290 290 289 289 292 294 295 296 297 297 297 296 296 296 296 296 297 297 298 298 299 299 298 300 301 301 302 301 303 305 306 306 307 308 308 310 311 314 317 319 319 319 319 319 318 317 317 317 317 318 319 320
278 270 274 279 281 282 284 282 280 284 286 283 280 284 279 272 273 273 271 268 267 269 271 274 277 277 278 279 283 283 284 286 287 289 289 289 289 291 294 295 296 295 295 296 297 297 296 295 296 295 296 296 296 296 295 296 297 298 297 298 301 302 300 302 302 302 304 303 306 308 309 311 313 315 317 318 318 318 317 317 317 317 318 318 317 317
275 269 273 278 280 281 280 278 271 277 282 283 284 280 279 280 277 277 276 275 272 269 269 268 275 272 280 280 282 283 285 285 285 286 288 290 293 294 295 295 295 296 297 297 298 298 297 296 295 294 295 296 297 297 296 295 296 298 297 297 298 297 298 299 300 300 303 303 303 305 303 303 304 308 313 315 315 316 316 317 317 316 314 315 312 315
274 276 267 274 278 278 274 278 277 278 277 277 278 274 278 278 283 282 281 278 276 273 272 271 271 273 278 281 283 284 286 287 289 290 290 292 292 294 295 295 295 297 297 298 298 298 298 297 296 295 293 293 292 292 293 295 295 295 295 297 296 298 300 300 300 299 301 300 302 302 304 304 304 305 305 307 309 313 313 311 310 312 312 308 308 309
268 268 271 277 275 272 276 279 280 280 280 278 278 277 279 277 274 273 272 281 274 273 272 273 271 279 284 288 287 287 288 289 290 289 290 291 292 293 295 296 296 296 298 298 297 297 297 297 296 295 293 292 292 294 294 295 294 295 296 295 294 295 296 297 299 299 299 299 299 300 300 300 300 302 304 304 305 307 308 309 308 308 308 309 307 308
281 274 273 273 273 275 279 282 281 281 282 280 279 278 277 276 277 275 271 274 278 277 279 277 274 276 286 287 287 287 287 287 288 288 289 290 292 293 294 295 296 296 297 298 297 298 297 296 295 293 292 292 292 293 292 292 293 294 293 293 293 295 296 294 295 295 296 298 299 299 297 298 299 299 302 304 306 307 307 307 307 308 308 307 306 305
286 269 272 274 274 275 278 275 276 276 281 278 279 279 278 277 278 278 277 278 275 276 272 272 272 276 285 285 287 285 286 288 289 289 288 289 291 292 293 294 295 296 297 298 298 298 298 296 294 294 295 296 295 294 294 294 293 292 292 292 292 294 294 293 294 295 297 298 297 296 297 297 297 298 302 305 305 306 306 306 307 307 307 307 307 306
270 269 273 270 267 267 266 263 271 273 275 272 276 278 281 280 279 278 277 277 273 275 274 271 268 275 284 285 286 287 288 287 288 289 289 289 290 291 291 293 295 296 297 297 297 299 298 297 298 298 296 294 294 293 292 293 294 293 293 291 292 293 291 291 292 295 296 296 296 295 296 296 296 297 300 303 304 304 305 305 306 306 307 306 305 305
275 271 269 265 263 260 262 260 262 269 270 274 277 278 278 278 277 275 269 271 270 275 275 269 271 279 284 285 285 285 286 286 288 289 290 290 290 290 291 291 292 295 296 296 296 297 298 298 296 295 295 295 294 293 293 293 292 292 292 292 290 290 290 291 291 293 294 293 294 293 293 294 295 298 300 302 303 303 304 304 305 305 305 306 304 302
272 275 274 271 267 266 269 271 275 279 275 272 275 277 278 278 278 277 277 274 271 275 272 275 276 278 280 282 283 284 285 285 286 287 288 289 290 291 291 292 291 291 293 294 295 297 296 297 299 298 296 295 294 292 293 292 292 291 291 291 289 289 289 289 291 291 291 291 290 291 291 292 292 295 298 298 299 301 302 302 301 301 300 300 300 299
275 277 274 274 275 275 277 277 278 279 275 276 275 276 278 278 277 274 274 272 277 274 271 277 279 278 279 282 283 284 285 286 286 287 288 289 290 290 291 292 293 293 292 291 293 295 296 298 299 298 298 295 294 293 291 291 290 292 292 292 290 288 289 290 289 289 289 288 289 290 290 290 291 292 295 297 298 299 298 298 298 297 297 297 296 296
274 275 275 273 273 277 277 277 278 278 277 277 277 277 276 278 276 272 274 278 275 273 272 277 278 277 279 282 283 284 285 286 286 287 289 290 290 290 290 291 291 292 292 291 291 292 294 295 296 297 299 299 295 292 291 290 289 288 288 287 286 287 287 286 287 287 287 287 287 288 290 292 292 294 295 295 297 296 296 295 294 294 293 293 292 293
274 270 269 272 273 273 274 277 278 275 275 275 276 277 278 277 276 276 276 278 277 275 278 278 279 278 281 282 284 285 287 287 288 289 290 289 289 290 290 290 290 291 291 292 293 293 293 292 293 294 296 296 295 294 292 292 291 290 290 290 287 286 286 286 286 286 286 286 286 286 289 291 292 293 294 295 294 293 293 292 292 291 291 290 290 290
277 273 280 273 273 275 274 277 277 275 271 272 276 277 277 277 276 277 276 277 277 275 277 277 277 277 283 285 285 287 288 288 288 288 288 289 289 289 289 290 290 290 291 292 293 293 294 293 293 292 291 293 294 294 294 294 293 291 289 288 287 287 285 285 286 285 285 286 285 286 289 291 291 292 292 293 292 292 291 291 290 289 289 288 289 289
279 277 278 276 274 274 277 275 273 270 271 271 273 275 275 273 271 273 273 276 274 274 276 273 272 276 282 285 286 287 287 287 287 288 289 289 290 290 289 289 290 290 291 292 293 293 293 293 294 294 294 294 292 292 291 292 291 288 289 289 288 287 285 285 286 286 285 284 284 286 289 291 291 291 290 291 291 291 290 289 288 287 287 287 286 286
277 276 276 275 273 273 278 278 276 274 274 272 271 273 275 276 277 277 278 278 279 279 276 273 275 281 283 286 285 286 287 287 288 288 288 289 290 290 289 289 290 290 291 291 292 292 293 293 294 294 295 294 295 294 293 293 290 290 291 289 288 285 286 286 286 284 285 283 284 285 288 289 289 289 289 289 289 289 288 287 286 286 285 285 285 285
281 279 277 279 272 273 276 275 276 273 267 268 278 280 279 278 278 276 277 279 279 279 278 280 281 284 284 285 286 286 287 288 289 290 291 289 289 289 290 291 291 292 292 292 292 292 293 294 294 295 295 294 294 294 293 291 292 292 289 288 285 286 286 286 284 285 285 284 284 285 286 288 288 288 288 288 288 287 286 286 285 284 284 284 284 284
280 280 278 279 274 273 276 276 272 266 268 278 281 281 282 281 280 279 279 279 280 280 279 280 282 283 286 287 287 288 289 290 291 290 291 290 290 290 290 290 290 290 290 290 291 291 292 293 293 294 294 294 294 294 291 289 289 286 286 286 286 285 286 285 285 284 284 284 284 284 285 287 287 287 287 287 287 286 285 284 283 282 282 282 282 282
279 278 279 277 277 277 274 272 265 267 276 280 281 282 282 280 279 278 278 279 280 281 282 282 284 286 287 287 288 289 289 289 289 289 289 291 292 291 290 290 291 291 290 290 290 291 292 292 293 293 294 295 294 294 291 292 288 287 287 285 286 285 285 285 285 285 284 284 284 284 285 286 286 286 286 286 285 285 284 283 282 281 281 281 281 281
281 279 279 275 278 271 273 272 271 277 276 277 277 278 280 279 280 279 275 278 282 284 284 283 284 286 286 287 288 289 289 288 285 286 288 291 291 292 292 291 291 291 291 291 291 291 292 293 293 293 294 294 294 293 292 289 287 287 286 286 285 285 285 285 285 284 284 285 284 284 284 285 285 284 284 285 285 283 282 281 280 280 280 280 280 280
281 278 280 276 275 277 273 271 272 271 269 273 278 280 282 282 283 280 276 277 281 283 286 285 284 285 285 286 287 287 287 284 282 284 287 290 291 291 292 291 291 291 290 290 291 291 291 292 292 293 293 292 292 292 290 286 287 287 286 286 285 285 285 285 285 285 284 285 285 285 284 284 284 284 283 283 283 282 281 281 281 281 281 280 280 280
281 283 282 277 275 275 273 270 270 268 272 278 278 280 282 281 282 280 276 274 281 284 286 285 284 284 285 285 286 286 284 280 281 284 288 290 291 291 290 290 290 290 290 290 290 290 290 291 291 290 291 291 290 292 288 287 287 287 287 286 285 285 285 285 286 285 285 285 285 285 285 285 285 285 284 283 283 283 283 283 282 282 281 281 281 281
273 275 278 276 274 275 274 271 269 271 272 276 279 279 281 282 283 279 270 271 281 283 283 283 283 284 284 286 287 285 283 280 281 285 290 290 290 290 290 289 289 289 290 290 290 290 290 289 289 289 291 291 292 292 286 286 287 288 288 286 285 285 286 286 286 285 285 285 285 285 285 285 285 284 284 284 284 283 283 283 282 282 281 280 280 280
268 270 274 272 273 274 274 272 273 274 279 279 279 281 282 283 283 272 268 275 282 282 282 283 283 284 285 285 286 282 285 287 287 289 290 289 289 289 290 290 290 290 289 289 290 289 289 289 288 289 289 290 291 289 285 285 287 287 287 286 285 285 287 286 285 285 285 284 284 284 285 285 285 284 284 283 283 283 283 282 281 280 280 279 279 278
267 268 270 271 272 271 272 271 272 275 280 281 281 281 282 279 270 270 278 283 282 281 282 283 283 285 285 284 285 285 286 288 288 288 288 288 288 288 289 289 289 290 290 290 289 289 289 288 287 288 289 290 288 286 284 285 286 287 286 285 285 286 284 284 284 284 284 284 284 284 283 283 283 284 283 282 282 282 281 281 280 280 279 278 278 278
267 267 266 269 269 268 268 270 270 266 275 280 280 279 280 274 276 281 281 281 281 281 282 283 284 284 284 283 284 284 285 285 285 286 286 287 287 287 288 288 288 289 289 289 289 290 289 287 287 287 288 289 287 284 284 284 285 286 285 285 286 284 283 283 283 283 283 283 283 283 283 283 283 283 283 283 282 282 281 281 280 279 279 278 278 278
271 266 266 266 271 268 269 268 268 273 278 281 280 274 279 280 282 281 279 277 280 281 281 282 283 283 283 283 282 283 283 283 283 284 285 286 287 287 288 288 289 289 289 289 289 289 287 286 286 287 287 287 286 284 283 284 286 286 284 285 282 281 282 282 283 283 283 282 282 282 282 282 282 282 282 282 282 282 281 281 280 280 279 279 279 278
274 271 271 269 273 270 267 271 277 279 280 281 281 280 280 280 281 280 279 280 280 281 282 281 281 282 282 282 281 282 281 282 282 283 284 285 286 287 287 287 288 288 288 288 289 289 287 286 285 285 285 286 285 283 282 284 285 285 285 283 281 282 282 282 282 282 282 281 281 281 281 281 282 282 282 282 282 281 281 280 280 279 279 279 278 278
274 275 276 274 273 276 277 278 280 280 279 278 278 279 279 279 280 279 279 279 280 281 281 280 280 281 281 282 281 281 281 282 282 283 284 285 286 286 287 287 287 288 288 288 289 289 288 286 285 284 284 285 284 282 280 283 283 284 285 281 281 282 282 282 281 281 280 280 280 280 281 281 281 281 281 281 281 281 281 280 279 279 278 279 278 278
275 274 271 272 273 272 269 277 275 276 277 277 278 279 279 278 278 280 280 280 280 280 280 281 281 281 281 281 281 281 281 282 283 283 284 285 285 285 286 286 286 287 287 287 288 288 288 286 285 284 284 284 285 282 281 281 283 283 281 281 282 282 282 282 281 280 279 279 279 279 280 280 280 280 280 279 279 280 280 280 280 280 279 279 278 278
270 273 272 272 271 270 271 275 276 277 277 277 277 277 277 279 280 279 280 280 280 280 280 281 281 280 281 281 282 282 282 282 282 283 283 284 284 284 284 285 286 287 287 288 288 288 287 286 286 284 283 284 284 282 281 280 280 280 281 281 281 281 281 280 280 279 279 279 280 280 280 280 280 280 280 280 280 280 280 280 280 280 279 279 279 278
272 273 269 271 269 272 274 275 275 276 276 275 276 277 279 279 279 279 279 279 280 280 280 281 281 281 281 281 282 281 281 281 282 282 282 283 283 284 284 285 286 286 287 287 287 287 287 286 285 284 283 283 283 281 280 279 279 279 281 281 281 281 281 280 279 279 279 280 280 280 281 281 281 281 281 280 279 279 280 279 279 279 279 280 280 279
273 270 274 271 268 268 269 272 275 270 270 275 277 278 278 279 279 279 279 279 280 280 280 280 281 282 281 281 281 281 280 281 282 282 282 282 283 283 284 285 286 286 286 287 287 287 287 285 284 284 283 283 282 281 280 279 279 280 280 281 281 281 281 280 280 279 279 280 281 281 281 281 281 281 279 278 278 278 279 280 281 280 279 279 281 281
272 273 273 270 269 269 274 276 277 276 276 277 277 279 279 279 279 279 279 279 280 280 280 280 279 279 280 280 281 281 281 281 281 282 282 282 283 284 284 284 285 285 286 287 286 286 286 286 285 283 282 282 282 280 280 279 279 280 280 281 281 281 281 281 280 280 280 280 280 281 280 279 278 278 279 279 279 278 277 277 279 282 282 281 280 281
Wind_Speed
1 2 2 4 5 4 3 2 4 4 2 1 1 3 5 4 5 4 5 7 1 3 8 10 11 9 10 7 11 12 11 11 10 7 6 6 5 5 5 5 7 8 10 10 10 9 10 13 13 12 11 11 11 11 12 13 13 14 14 12 14 12 10 10 10 9 10 10 8 7 11 13 10 10 10 10 10 9 10 10 11 11 10 9 10 9
3 3 4 3 5 4 5 4 2 3 3 4 4 3 6 3 5 5 6 5 4 2 4 4 3 6 8 8 10 8 5 10 10 12 7 5 5 5 5 6 7 8 5 7 6 6 5 7 9 9 9 9 11 12 12 14 16 15 13 14 14 10 11 12 13 12 11 11 12 12 13 12 10 10 10 12 11 12 10 10 10 10 9 10 10 10
1 1 2 5 6 4 4 3 3 2 4 4 3 3 3 5 5 8 7 2 2 1 7 4 5 8 8 7 7 6 5 4 5 4 5 3 4 5 5 5 6 5 8 7 8 6 5 6 6 7 9 10 15 15 15 16 13 12 13 14 13 12 13 13 13 11 13 12 11 11 10 10 8 8 9 8 8 7 9 10 10 10 10 11 11 11
3 4 7 5 3 4 4 3 4 4 1 3 5 3 5 2 3 6 8 3 3 1 4 6 9 8 6 5 8 8 6 5 5 5 6 5 6 7 7 5 5 6 6 9 8 7 7 9 7 5 7 10 11 10 11 11 12 11 12 13 13 13 13 12 13 14 14 12 10 9 5 4 7 6 5 7 6 7 9 11 10 10 11 12 12 12
5 3 2 3 2 1 3 4 3 2 6 2 3 3 2 3 3 5 7 7 7 3 3 4 7 8 4 7 6 5 6 4 5 5 5 7 5 6 5 5 5 7 7 8 9 9 6 5 8 11 12 9 9 10 11 12 12 11 15 16 15 13 13 12 13 14 11 7 5 6 3 1 3 2 3 5 9 10 10 9 10 14 12 12 12 11
4 7 1 2 2 2 2 3 3 2 4 4 4 6 7 5 5 4 5 8 7 7 2 2 5 6 4 5 8 7 5 6 3 4 8 9 8 6 8 10 7 6 6 8 10 9 7 6 8 8 9 8 9 10 11 11 14 14 14 13 12 10 10 11 12 13 9 9 10 8 9 10 9 9 9 12 15 12 12 15 11 7 10 12 11 11
1 6 3 3 2 2 3 3 1 3 3 0 6 5 7 6 4 3 6 1 5 4 4 5 0 8 2 5 5 5 5 9 9 7 7 7 8 9 10 9 11 12 7 6 6 7 7 7 6 7 8 10 11 12 11 9 10 11 11 11 12 11 11 11 10 10 9 9 9 12 13 13 12 12 11 12 9 8 9 7 8 10 8 10 12 11
4 6 7 6 6 4 2 1 2 3 1 2 4 1 1 1 1 2 2 3 5 2 6 5 1 5 9 7 4 6 5 7 8 10 9 8 8 9 9 13 13 13 13 8 9 9 8 9 8 10 11 11 13 13 9 8 7 10 12 10 11 10 10 10 9 10 12 12 11 11 12 11 11 12 14 12 11 7 5 7 9 8 8 9 10 11
2 2 3 5 3 3 0 2 3 3 2 4 5 6 5 1 1 1 2 1 2 2 7 4 3 5 5 4 3 8 7 6 9 10 10 9 8 9 11 12 12 13 13 14 12 11 10 8 10 9 9 11 12 11 10 10 10 10 10 9 7 9 10 10 12 12 13 13 12 12 11 11 11 12 12 9 6 7 7 8 8 8 9 9 10 11
2 2 1 1 1 3 4 3 1 1 2 3 2 6 2 1 2 1 0 1 2 1 8 4 1 4 14 2 2 1 2 7 5 7 10 10 10 11 12 11 12 11 10 10 12 12 13 10 9 10 10 9 10 11 11 10 8 8 7 9 10 12 11 11 11 12 13 14 12 12 12 14 13 11 11 9 9 7 7 10 10 8 8 9 9 11
5 2 2 1 4 4 3 3 2 2 4 4 5 3 3 4 2 2 4 1 2 5 10 3 3 3 9 2 8 4 5 5 5 6 7 8 10 11 11 12 12 12 13 12 9 10 12 13 8 7 9 10 7 6 7 8 9 9 9 10 11 13 11 10 11 11 13 13 13 13 14 16 16 15 13 11 10 8 7 10 10 10 10 9 9 9
4 2 2 3 3 1 1 4 3 3 1 0 2 1 4 6 3 3 2 2 2 8 5 4 5 6 9 1 1 3 4 3 1 5 7 9 9 10 9 10 8 9 10 12 12 11 11 12 12 7 7 8 8 6 6 6 5 6 8 8 10 10 10 9 10 10 13 12 13 13 13 14 14 14 11 13 13 12 12 11 10 8 7 8 8 8
5 3 2 4 4 4 1 2 7 3 1 2 2 5 3 3 5 4 0 3 5 8 1 0 4 3 11 16 8 11 10 11 10 9 10 10 12 12 13 13 11 7 7 9 10 12 12 12 12 9 9 7 6 7 6 6 6 6 6 8 10 12 11 11 11 12 13 12 12 13 14 14 12 12 11 10 10 8 8 8 7 6 8 7 7 8
5 2 6 6 5 2 1 1 5 4 4 2 1 3 2 1 1 7 4 2 4 3 2 2 3 4 6 12 7 13 13 15 15 15 15 15 16 16 15 15 13 10 8 9 11 11 11 12 12 10 8 6 6 6 6 5 4 5 5 5 7 11 8 7 8 10 10 12 13 12 12 12 10 11 11 10 10 9 8 7 8 8 8 8 9 8
6 6 6 5 2 1 1 4 2 1 4 5 1 2 4 4 2 3 2 4 6 7 2 3 2 5 4 5 1 2 4 6 6 9 10 10 11 11 11 11 14 13 13 11 11 11 11 11 9 9 7 6 5 6 6 6 7 6 7 8 9 10 9 7 9 8 10 10 10 10 10 10 9 10 9 10 9 9 8 7 8 8 7 8 8 8
2 3 6 2 5 3 3 2 1 1 1 2 1 5 3 3 2 4 4 3 2 2 2 1 5 4 7 5 8 8 3 6 7 6 5 8 8 8 9 10 11 12 14 13 11 11 11 10 8 7 7 6 5 5 4 5 5 5 6 5 7 9 9 8 7 7 8 9 8 7 9 10 10 9 8 8 7 7 8 8 8 9 8 8 7 7
4 4 2 7 4 2 3 2 3 2 1 2 3 0 2 1 4 2 3 4 4 3 7 4 7 8 8 14 9 10 7 7 9 9 7 6 6 7 8 10 11 11 10 10 9 8 10 9 5 4 5 5 5 4 4 4 3 2 4 4 6 6 5 5 7 8 7 6 6 7 8 8 8 10 10 11 11 11 9 9 8 8 9 8 8 8
1 8 4 3 4 2 0 2 1 1 1 4 0 4 2 2 5 1 2 1 1 6 4 5 4 5 1 10 1 8 12 14 14 14 11 9 6 7 9 9 12 12 13 13 11 9 7 7 6 4 4 3 2 1 1 1 1 0 0 1 3 3 4 5 4 5 5 6 6 7 7 8 9 10 11 11 11 10 9 8 8 7 8 9 9 8
1 4 4 0 3 7 5 2 3 2 4 1 2 2 2 3 3 1 2 3 4 8 4 3 6 7 7 12 6 9 10 13 13 13 14 12 9 9 8 10 11 11 10 11 11 10 8 5 5 3 3 2 2 3 4 4 4 4 3 2 0 2 3 4 4 3 4 4 5 5 7 8 8 8 9 9 9 8 9 10 9 9 10 8 8 8
2 0 6 3 3 5 5 5 3 3 4 1 1 3 1 1 3 4 3 3 2 3 3 4 4 5 5 5 5 7 7 8 8 7 8 10 11 11 8 9 10 10 9 9 8 8 8 7 4 3 3 4 5 5 5 4 4 5 4 4 4 3 3 3 4 4 5 4 4 5 4 4 4 5 6 7 7 9 10 10 9 8 7 9 6 6
1 1 2 5 5 4 4 2 2 2 4 4 6 3 3 1 2 2 3 1 5 5 3 4 6 3 7 2 6 7 8 5 5 8 9 13 14 11 9 10 11 11 10 10 8 8 9 8 8 5 3 3 3 2 2 3 3 4 3 4 4 4 5 5 4 4 4 4 5 4 6 6 5 6 4 4 5 7 7 5 5 5 4 3 3 5
1 2 4 7 8 2 6 3 3 1 1 1 0 1 2 5 5 4 6 2 3 2 4 6 8 6 8 7 8 10 8 2 5 7 11 15 17 14 11 11 9 10 12 11 9 8 8 8 8 7 6 4 4 5 5 5 4 4 4 4 4 4 4 4 5 4 4 3 2 3 4 4 2 2 1 1 1 2 1 1 2 2 3 3 1 1
1 2 1 6 3 7 12 15 3 5 2 2 2 2 1 1 1 2 4 3 5 3 6 7 9 11 6 6 8 9 9 10 13 12 10 10 15 17 14 10 10 8 9 12 11 9 8 7 7 7 6 6 6 6 5 5 4 4 4 4 3 2 4 2 3 3 2 3 2 2 1 0 1 1 1 3 2 3 3 3 3 2 4 4 3 3
3 2 3 6 4 5 7 3 3 4 4 3 3 2 2 3 2 1 2 5 4 7 4 4 6 9 6 3 6 5 8 10 12 13 14 11 10 13 15 16 12 10 10 10 11 10 9 7 7 7 7 8 7 6 7 5 4 4 4 4 3 3 4 3 2 2 1 1 1 1 0 0 0 2 3 4 3 4 3 4 4 3 5 5 4 5
3 1 3 6 8 3 2 5 4 4 5 2 1 2 1 1 2 2 2 2 2 6 9 3 10 8 13 4 5 8 12 15 16 15 13 13 12 13 12 11 11 11 10 10 11 12 12 12 11 9 8 8 7 6 6 6 5 5 5 4 4 4 3 2 2 1 1 0 1 1 0 0 0 2 2 3 3 4 4 4 4 4 5 5 6 5
1 1 3 1 1 5 9 6 7 9 7 3 0 2 1 3 4 4 2 1 1 6 1 0 7 13 17 19 15 11 13 15 15 13 13 11 11 13 13 11 9 9 10 11 11 11 12 12 11 11 9 8 8 7 6 6 5 5 4 5 4 4 3 2 1 0 1 0 1 0 0 0 1 1 2 2 3 4 4 4 4 5 4 5 7 6
1 0 2 5 6 7 9 6 2 2 5 7 10 7 12 4 3 3 3 3 6 5 4 8 12 15 20 24 21 16 14 17 18 17 14 14 15 16 14 15 10 8 9 11 11 10 9 12 14 12 12 10 9 7 7 6 6 5 5 5 4 3 2 2 0 0 1 1 1 1 0 0 1 2 2 2 2 3 4 4 4 5 6 5 7 7
2 1 4 7 9 11 10 10 7 4 7 10 11 14 9 6 2 3 4 10 2 7 13 11 9 10 16 21 21 21 19 18 16 14 14 14 15 15 16 18 21 19 12 5 7 10 11 11 11 13 13 11 10 8 7 6 6 6 6 6 5 3 1 0 1 1 1 1 1 1 0 0 1 1 2 2 3 4 4 5 5 6 6 6 8 7
1 2 5 4 9 10 8 9 8 8 6 10 13 13 15 11 3 5 8 14 6 5 12 18 15 11 16 20 23 21 19 16 16 18 17 15 15 16 16 17 19 20 19 13 9 9 10 12 13 12 12 12 9 9 9 8 7 5 5 4 4 3 3 2 2 1 1 1 2 1 0 1 2 2 3 3 4 4 5 6 6 6 7 7 8 7
1 4 5 5 7 4 5 8 8 8 6 7 11 15 14 9 8 8 14 14 9 11 16 17 17 18 19 21 22 20 16 15 17 16 15 15 15 15 15 15 16 17 17 17 17 14 11 10 10 12 11 10 12 11 9 9 9 7 7 6 5 4 3 3 4 4 3 3 2 1 1 2 3 2 3 4 5 5 6 6 7 7 8 8 7 8
2 4 2 1 4 8 3 5 7 5 5 10 14 14 11 9 10 11 8 13 10 10 15 17 16 18 18 15 14 14 11 9 11 15 17 16 15 15 14 14 14 14 16 16 16 16 16 14 12 8 8 11 12 12 12 11 10 8 7 6 6 5 4 4 4 4 4 4 2 2 2 3 3 3 4 4 5 6 7 7 7 8 8 8 8 8
1 4 0 2 7 6 1 3 4 5 5 9 17 20 13 8 7 6 5 8 5 8 7 4 5 11 14 10 9 11 13 11 11 15 17 16 15 14 13 13 14 14 14 16 16 15 15 17 18 18 17 14 9 10 10 11 10 7 9 7 7 6 4 4 4 4 4 3 3 3 3 3 4 3 3 4 5 6 6 7 8 8 8 8 9 8
2 1 4 2 6 5 2 4 6 9 10 11 10 6 6 4 7 7 8 6 8 5 7 7 11 6 9 12 14 15 13 11 13 14 17 18 16 14 13 12 13 14 14 14 16 17 17 17 17 19 19 17 15 11 10 10 6 9 10 8 6 5 5 5 5 4 4 3 4 3 3 3 4 4 4 3 5 6 6 8 8 8 9 9 8 9
4 7 5 2 4 6 5 4 5 8 9 9 1 1 3 7 7 9 13 13 3 6 6 4 6 9 11 10 12 15 16 15 13 15 14 11 10 12 12 13 14 15 15 15 15 16 17 17 17 18 18 17 17 14 9 7 11 11 6 6 5 6 5 6 4 5 5 4 4 3 3 4 4 5 4 4 5 6 7 8 8 7 7 8 8 10
5 4 4 2 3 5 4 5 8 8 12 0 1 6 10 12 11 11 15 10 5 3 2 6 7 8 9 8 10 12 13 15 14 16 16 6 8 11 13 13 14 15 16 16 17 17 18 19 19 19 19 18 17 15 8 7 8 4 4 6 6 5 6 5 6 5 6 6 4 4 4 5 5 6 5 5 5 7 8 9 9 9 7 7 8 10
5 6 3 2 2 3 3 3 3 10 6 9 14 13 9 4 1 3 5 2 1 0 1 4 8 8 10 12 13 11 13 15 12 11 9 6 9 10 11 13 15 15 16 16 16 17 17 18 19 20 20 18 17 15 9 9 5 6 6 4 7 6 6 6 6 6 6 7 7 7 6 7 7 7 6 6 6 8 9 8 9 9 7 9 8 7
9 1 2 4 5 4 2 6 10 13 19 8 1 3 4 4 5 3 8 5 3 3 6 7 8 12 14 16 15 13 13 14 10 7 3 10 14 13 11 13 14 15 14 15 15 17 17 17 17 19 18 17 16 16 13 6 5 6 5 7 7 8 7 7 7 7 7 8 8 8 8 8 9 8 8 7 8 8 8 8 8 7 6 10 9 9
5 7 3 3 2 6 4 8 5 4 10 2 3 1 3 1 2 2 2 6 2 4 6 11 15 16 17 15 13 11 10 12 13 9 4 10 14 15 16 14 14 14 13 13 15 16 17 17 16 17 16 16 17 15 9 3 6 8 8 9 8 9 9 9 10 8 8 8 8 9 8 9 10 10 9 8 9 9 8 7 6 7 6 10 11 10
4 7 6 6 4 1 2 3 2 5 10 6 5 3 9 4 0 1 2 7 1 11 12 14 16 16 14 14 14 9 11 13 14 11 9 13 17 15 15 17 14 14 13 12 13 16 18 18 18 18 18 16 15 16 6 7 9 9 10 9 10 10 11 12 10 10 11 10 9 9 9 9 9 10 10 10 9 9 10 10 9 7 6 7 8 10
3 2 3 6 7 5 5 7 8 3 7 2 4 5 12 5 0 2 7 2 8 17 18 17 17 16 16 14 12 10 11 14 17 16 15 16 16 16 14 16 18 17 17 17 14 12 13 14 15 17 17 17 17 14 5 6 8 10 10 10 9 10 12 13 13 10 8 9 9 8 9 9 10 9 10 10 10 9 8 7 8 9 9 8 8 10
1 2 3 6 5 9 10 7 6 6 6 4 2 9 12 2 2 3 6 8 14 17 16 13 14 14 13 13 10 11 10 11 16 19 18 16 18 18 16 14 14 14 14 16 18 17 14 13 11 13 15 14 15 11 4 5 7 10 9 8 9 13 13 9 8 9 9 9 10 9 9 8 10 12 9 8 9 8 8 7 8 8 9 10 8 9
2 1 3 3 6 8 6 8 8 9 5 2 6 15 5 5 8 9 6 7 13 16 14 12 13 12 10 12 11 11 14 15 16 18 19 18 16 17 17 17 16 17 15 13 13 11 13 14 14 15 16 13 11 8 4 4 8 10 7 8 12 14 5 7 9 9 10 10 9 8 8 7 6 9 10 9 9 9 9 8 9 8 9 8 10 12
2 1 2 2 2 2 1 6 7 9 1 4 12 13 4 9 6 7 13 13 7 10 13 13 10 10 11 15 15 15 17 18 17 19 19 18 16 17 17 17 18 18 19 20 20 19 14 14 16 16 15 14 11 6 4 4 8 8 6 10 12 4 6 7 8 9 10 10 10 9 9 8 9 9 9 11 11 12 12 10 10 9 9 11 11 12
2 1 2 2 3 4 3 6 6 5 3 8 12 8 6 5 8 12 11 12 8 8 9 10 11 12 14 15 18 18 17 18 18 17 19 18 17 17 16 16 17 17 18 18 15 14 13 14 14 15 15 13 10 7 4 6 9 9 8 12 1 5 5 8 8 9 10 9 9 9 9 9 9 8 8 9 9 10 12 11 11 10 9 9 10 10
5 5 3 2 2 1 3 6 11 14 14 9 3 4 8 13 15 14 10 9 11 10 8 11 15 17 16 17 18 17 17 15 16 17 17 18 17 16 17 17 18 19 18 17 17 17 13 12 15 15 16 14 10 7 4 4 8 8 11 5 5 6 8 8 9 9 9 9 9 10 10 10 9 9 9 8 9 10 10 11 11 10 7 8 8 9
3 2 5 5 8 3 7 12 15 14 8 6 7 9 13 15 14 7 8 12 10 11 12 15 18 18 18 15 16 15 14 16 17 17 16 16 15 15 16 18 18 18 19 17 16 15 14 14 13 12 14 16 10 7 4 5 5 9 7 1 4 4 6 8 9 9 9 9 8 8 10 12 11 10 10 9 7 8 9 12 10 10 8 8 8 8
6 3 2 5 2 5 8 3 4 8 10 12 14 13 11 7 6 8 13 11 12 15 16 16 16 16 16 14 13 15 17 16 16 17 15 14 15 16 17 19 19 18 18 18 18 15 15 13 14 14 13 15 13 7 5 5 6 6 2 6 4 6 7 8 9 9 9 10 9 9 10 12 10 10 9 8 7 6 6 6 7 9 9 8 9 9
4 1 5 6 7 7 13 13 14 13 11 11 11 9 7 10 13 11 11 13 14 14 14 15 14 13 12 14 15 16 18 17 15 16 16 15 16 16 16 17 18 19 19 17 16 14 13 13 13 14 13 13 13 7 5 4 5 3 4 4 6 7 8 9 10 10 10 11 10 10 10 10 11 12 10 8 8 9 7 6 6 6 6 7 8 10
3 4 7 0 2 9 12 16 15 11 9 6 5 5 9 11 14 16 14 14 15 15 15 14 11 13 14 15 15 15 16 17 16 15 16 16 16 15 16 17 18 17 17 18 18 14 13 13 14 14 12 13 10 7 5 5 4 3 6 7 7 9 11 10 11 11 12 12 12 13 12 12 12 9 9 8 7 7 6 7 8 8 6 5 2 2
1 10 9 5 9 10 9 12 8 11 12 12 12 12 13 15 14 15 15 14 14 15 15 15 15 14 14 14 14 14 15 16 16 15 17 16 15 16 17 18 18 18 17 16 15 15 15 12 12 13 13 12 8 7 6 5 4 4 4 6 7 9 11 12 12 13 13 12 12 13 14 14 14 14 14 13 12 11 11 13 14 7 7 7 10 13
11 12 5 7 8 10 11 11 8 10 13 10 12 14 14 11 12 14 15 15 15 14 14 15 16 16 15 16 14 14 15 16 18 16 16 15 16 15 15 17 18 18 18 17 17 17 16 15 12 11 12 12 8 6 6 4 4 4 5 6 7 9 11 13 12 11 11 11 11 12 11 10 10 10 10 11 12 11 12 11 12 17 16 14 14 15
Wind_Direction
121 162 182 212 211 208 245 193 206 239 195 234 302 289 276 266 285 281 282 269 293 276 257 250 253 250 256 247 257 255 258 264 261 249 237 250 256 262 270 266 256 246 242 239 237 235 212 206 205 203 197 201 204 208 202 197 199 198 195 188 201 199 190 188 190 193 192 197 203 211 212 219 213 215 214 220 221 219 221 215 214 214 215 214 214 214
74 195 255 245 215 193 223 232 259 314 308 263 264 253 282 234 267 262 273 288 284 212 285 279 286 264 251 256 253 265 271 258 257 267 255 247 256 256 251 260 265 261 290 286 279 263 256 230 211 200 198 194 195 212 206 205 204 199 194 197 203 188 194 197 195 194 196 200 199 198 208 210 208 209 209 222 217 218 219 217 216 215 213 212 214 212
32 246 38 213 223 230 254 262 264 226 278 297 255 266 283 275 234 277 267 277 284 359 263 303 319 287 274 258 266 270 252 246 240 224 248 231 258 261 255 252 265 288 282 286 271 241 225 236 227 205 203 201 203 204 203 210 206 199 200 208 200 195 196 201 198 192 203 204 204 201 210 202 214 218 220 228 226 220 222 219 217 215 214 212 215 211
11 280 211 217 217 231 274 288 299 305 286 257 313 329 279 248 48 306 290 285 291 205 280 298 300 287 283 256 245 259 245 247 247 249 260 237 250 262 258 251 261 270 279 283 281 271 228 206 210 211 216 214 211 209 208 211 208 207 209 210 204 204 202 201 201 203 209 205 205 211 213 209 210 208 216 225 223 219 218 224 214 216 214 211 215 210
212 262 337 337 349 74 282 304 4 345 297 254 202 239 290 321 240 186 274 313 299 289 221 308 302 291 257 271 289 264 248 263 277 286 286 283 255 259 270 267 234 250 256 267 279 280 272 236 206 201 211 212 213 213 212 205 202 206 209 210 205 205 204 205 203 205 203 187 195 204 197 140 222 251 207 210 231 221 218 222 214 219 207 211 215 212
308 286 266 261 263 318 278 313 267 186 304 308 224 204 227 232 283 287 284 330 347 323 3 337 340 288 292 284 257 281 308 274 263 282 277 284 294 290 291 291 275 236 238 241 256 255 264 244 231 216 208 204 215 220 221 213 210 205 209 210 207 206 207 208 207 203 189 194 195 185 195 209 212 219 209 215 221 211 209 216 219 216 208 211 215 214
257 340 354 316 340 258 256 238 260 126 239 103 275 194 211 222 230 271 292 6 297 264 284 58 185 280 332 315 300 301 312 295 309 299 293 305 304 307 296 289 291 289 273 262 247 263 269 263 252 239 215 208 209 221 217 215 217 219 220 210 202 203 206 206 205 190 189 197 201 202 206 211 211 217 227 229 234 222 223 223 217 216 208 211 214 217
20 348 4 31 47 25 46 3 339 33 160 274 249 327 180 127 167 234 189 193 243 256 296 313 156 275 292 252 251 279 288 294 311 301 306 301 297 288 281 286 286 284 287 265 266 262 237 244 235 227 218 210 212 217 211 211 213 215 217 208 207 205 205 203 198 189 192 200 203 206 213 217 219 219 231 226 229 224 217 213 222 212 213 210 212 215
94 296 27 356 38 67 199 206 343 348 119 235 322 342 301 141 210 70 30 255 225 20 287 288 356 306 254 282 235 213 252 272 268 278 290 294 284 272 272 270 270 276 276 284 282 272 263 237 235 232 231 220 215 212 203 204 208 212 213 211 208 211 209 208 197 196 197 202 203 206 211 219 226 230 238 240 228 221 213 222 219 214 215 212 213 214
286 155 163 148 125 281 228 262 236 308 4 290 287 296 289 70 64 345 120 350 331 272 261 260 252 241 279 211 252 304 219 249 248 256 258 259 263 269 272 274 279 281 280 276 278 280 279 263 235 233 234 236 220 210 204 204 202 205 205 209 206 211 210 210 204 201 201 202 203 206 209 215 225 227 239 238 231 222 210 223 222 218 216 213 214 215
251 358 193 147 215 206 192 233 193 198 224 274 334 336 335 23 38 45 61 85 358 256 261 193 170 177 290 183 207 154 223 202 227 258 267 268 267 268 266 265 270 279 288 289 279 274 271 273 260 232 238 238 242 237 215 204 200 201 202 209 211 216 214 211 209 202 207 205 206 211 212 215 219 221 223 228 233 225 220 222 221 216 217 213 217 212
331 349 108 272 300 336 30 321 229 173 206 6 4 32 6 345 3 24 340 57 235 260 273 152 198 180 242 299 228 245 319 350 260 282 278 284 284 284 283 283 272 270 271 280 287 285 277 278 273 260 246 242 238 237 229 223 216 209 210 209 216 223 218 215 212 207 213 209 212 216 218 221 224 226 225 225 230 222 223 223 224 221 220 221 218 217
359 32 254 322 340 78 342 334 304 348 35 70 48 28 84 262 37 331 15 273 208 245 287 203 165 266 242 258 276 285 284 288 283 261 264 268 276 277 279 276 276 268 275 283 285 287 289 277 269 263 253 257 251 236 228 226 220 223 222 215 216 225 218 217 214 211 213 211 214 214 218 222 224 229 231 234 239 237 235 233 234 220 223 219 219 217
305 291 16 337 6 346 20 36 307 11 342 108 168 160 124 349 185 253 241 243 285 314 257 224 244 240 257 280 224 241 249 248 249 259 265 265 266 271 276 285 290 289 275 271 272 274 273 273 273 269 262 251 254 260 250 235 225 228 230 231 230 239 229 229 225 222 219 218 218 217 220 223 222 227 228 231 232 233 232 225 230 226 225 222 223 219
43 348 336 26 355 326 123 188 178 251 331 303 140 82 187 192 156 242 188 214 231 235 276 291 86 244 195 231 255 231 282 282 257 258 262 269 271 274 280 286 292 292 287 279 274 270 268 269 267 271 271 260 238 233 236 234 231 219 222 221 224 237 236 224 225 224 224 226 224 223 223 225 224 229 229 232 229 231 229 223 225 227 224 223 226 223
250 239 259 190 247 348 2 311 178 263 16 327 200 109 56 266 277 220 210 152 279 310 338 233 198 218 223 297 323 293 277 288 281 280 307 295 296 294 294 286 278 280 284 281 276 277 276 273 278 274 263 253 244 241 241 230 214 209 229 231 233 233 235 227 228 227 225 229 227 225 225 225 224 229 234 241 233 232 224 226 219 226 221 223 224 224
1 343 277 326 11 70 44 326 324 114 44 282 53 335 216 10 98 271 283 206 232 315 249 207 287 294 295 287 290 291 332 313 322 321 314 293 294 320 305 297 291 286 280 278 271 266 273 276 277 269 284 301 314 316 311 319 321 264 230 207 219 230 240 236 229 230 228 233 229 232 227 226 225 225 225 229 231 229 225 223 221 220 220 219 216 219
105 270 309 39 338 297 35 271 298 26 142 72 55 269 267 155 120 176 244 332 302 241 266 190 238 269 24 284 324 1 325 318 313 300 290 301 320 312 300 300 299 295 291 291 287 273 264 279 278 279 287 281 280 280 297 317 311 44 12 277 262 272 253 254 245 244 235 229 231 235 234 233 227 227 229 230 234 231 226 225 223 221 222 217 214 210
103 332 296 305 271 281 333 37 16 350 31 103 270 237 54 298 326 321 90 287 271 264 269 254 217 248 200 259 314 310 296 285 286 299 317 327 330 313 309 313 313 313 313 310 311 308 299 298 314 333 333 326 356 15 16 352 359 359 18 21 32 270 255 264 274 264 264 239 240 236 234 232 235 235 236 234 233 231 227 228 221 219 222 221 216 212
40 175 302 312 41 297 334 56 354 315 336 13 61 9 256 86 220 293 187 240 80 287 298 279 211 263 218 234 256 269 287 314 323 331 323 321 318 311 303 310 320 326 327 326 332 335 331 328 328 329 343 354 351 348 344 342 343 345 331 340 324 304 291 291 284 281 278 270 257 266 271 262 243 249 243 239 231 228 228 228 222 221 223 223 213 211
318 106 262 276 328 8 9 6 316 21 335 340 20 332 11 247 225 153 303 238 265 283 267 310 303 269 266 232 5 318 310 306 333 329 332 326 323 323 310 318 321 326 328 326 325 320 322 320 318 320 319 309 306 299 313 327 313 290 311 315 310 300 298 296 282 284 268 286 276 263 261 263 267 257 249 248 245 237 240 244 233 217 199 148 194 199
50 11 264 320 348 26 260 212 260 300 90 115 161 259 286 357 349 9 299 69 21 341 291 316 284 298 289 304 317 306 290 301 317 331 324 318 315 315 314 319 322 325 325 316 315 315 315 316 314 316 320 316 328 325 327 317 331 322 312 295 305 313 289 290 297 290 286 285 275 265 266 273 288 277 223 154 79 116 88 86 81 100 104 123 57 104
133 160 42 311 257 293 283 291 296 247 164 181 122 294 60 68 57 358 309 323 339 259 272 275 280 276 257 258 275 284 312 321 317 312 303 296 303 308 308 309 311 310 309 313 313 309 303 298 299 298 295 300 300 297 300 300 294 285 282 298 306 319 288 297 284 304 304 299 294 281 287 192 137 107 133 126 122 123 116 106 104 106 114 108 101 69
78 42 327 281 280 290 299 313 32 52 125 50 26 66 58 342 150 160 248 291 291 301 322 278 241 279 289 212 252 305 310 309 305 302 299 297 293 296 305 310 312 314 313 308 307 306 303 306 307 314 313 312 310 302 293 287 285 283 280 272 279 271 272 311 319 320 318 310 336 345 358 47 48 112 136 138 138 128 123 118 108 111 107 102 95 96
18 297 94 335 337 353 352 344 360 331 51 79 320 285 178 86 19 239 231 274 225 254 241 262 283 294 291 260 300 317 311 302 298 296 299 301 297 295 296 301 306 308 305 307 310 310 314 315 314 308 303 297 292 289 279 275 273 269 275 286 272 265 269 287 310 282 317 3 297 2 33 36 60 105 122 132 129 126 124 122 118 110 113 107 94 89
105 225 85 45 18 330 319 331 314 328 322 294 234 309 254 309 298 5 341 310 263 258 256 319 276 267 280 295 300 302 297 293 291 290 292 291 294 302 306 302 290 287 291 301 308 313 310 307 307 303 297 292 282 275 272 265 261 267 272 276 266 266 293 291 337 256 138 73 166 327 59 37 71 88 97 109 116 119 116 115 114 108 87 104 102 86
160 32 123 166 171 221 228 246 216 305 326 317 295 289 291 277 239 216 258 269 242 297 316 240 249 281 293 295 299 301 296 293 294 299 309 313 314 313 308 304 289 271 279 291 297 302 306 307 301 297 294 283 281 278 270 260 257 257 259 266 274 262 263 281 141 79 137 104 147 142 359 58 98 122 116 105 107 101 98 96 98 98 98 90 98 99
63 286 232 205 225 236 254 266 282 330 290 284 289 287 275 269 203 197 215 247 247 19 289 272 248 258 275 284 289 293 293 293 300 312 312 310 308 306 306 305 305 303 291 264 284 291 288 280 280 285 284 287 282 277 273 263 252 243 232 240 242 241 238 259 139 135 132 124 133 132 85 27 44 70 87 98 102 100 98 96 89 89 89 92 91 90
136 242 258 176 247 243 261 275 286 282 252 259 270 273 280 276 237 219 245 246 253 223 253 278 288 280 275 275 278 281 289 301 312 307 304 301 298 299 301 302 303 303 305 302 276 265 266 270 274 272 275 280 282 277 268 268 265 260 260 253 253 228 209 167 150 157 147 135 155 168 67 92 60 68 89 95 97 96 97 93 91 89 87 88 90 88
66 244 243 196 261 281 283 277 268 260 268 273 264 268 267 278 269 233 248 257 230 232 246 260 273 276 272 272 278 285 298 308 303 301 302 303 299 297 297 295 294 296 297 297 298 292 277 267 262 268 271 268 270 268 261 257 253 243 235 238 236 219 221 142 166 164 167 174 184 187 153 108 90 91 93 98 99 99 98 96 97 97 95 91 93 95
132 272 341 320 300 303 292 259 263 257 266 283 283 275 275 272 267 252 244 259 250 256 256 258 266 273 272 272 287 297 302 303 307 310 313 308 303 298 293 291 288 285 288 291 292 295 299 299 292 274 242 245 249 247 242 239 239 237 233 228 220 212 194 157 169 174 172 182 188 180 160 128 126 115 108 108 107 108 105 103 102 100 98 96 95 95
109 271 61 256 288 293 53 278 278 309 300 275 281 285 289 270 260 259 219 222 174 233 254 278 280 265 279 309 317 314 319 326 332 326 319 316 309 302 296 292 290 287 287 291 298 303 305 307 306 305 302 292 263 237 235 238 234 221 229 219 211 201 160 156 171 176 178 170 159 167 160 137 126 117 115 119 117 109 107 106 104 102 102 103 98 93
188 294 309 333 293 291 264 0 335 320 305 291 274 254 230 227 222 261 267 250 232 250 293 281 262 285 316 323 322 318 324 330 335 321 314 315 321 322 319 317 315 315 316 319 318 316 313 309 305 302 300 297 295 279 255 244 244 233 227 210 206 155 160 170 170 164 161 161 150 156 139 126 128 125 124 120 114 112 110 108 104 105 105 102 106 103
219 219 249 192 268 303 325 352 328 310 296 258 186 182 28 302 287 289 288 284 303 134 232 240 294 317 311 312 319 320 322 322 320 307 298 304 335 350 343 334 326 321 320 319 317 315 314 312 308 302 296 292 289 284 266 230 225 238 216 192 168 167 171 163 169 164 163 152 151 147 138 130 132 130 130 127 120 117 114 108 102 100 104 108 106 102
242 258 250 154 252 287 325 316 304 277 249 164 118 328 290 279 274 266 275 298 299 255 279 301 274 270 280 300 304 305 304 306 310 303 299 320 359 342 333 329 325 322 317 315 316 315 312 309 307 304 299 293 286 284 272 242 226 215 176 180 171 171 162 173 163 168 163 154 152 143 143 138 134 133 132 130 128 120 116 114 113 110 109 105 106 108
240 233 256 223 211 262 250 182 258 255 274 307 300 284 290 301 303 352 307 260 252 148 279 302 319 307 318 323 318 311 310 306 303 288 277 325 336 332 330 323 321 319 315 311 309 307 308 308 306 302 298 294 291 285 264 247 195 184 202 178 171 165 169 167 172 175 164 160 162 160 157 148 142 137 135 132 130 126 123 121 122 121 119 107 99 92
221 219 189 264 162 249 211 242 239 284 296 302 262 50 20 18 323 342 308 284 184 75 351 322 320 325 331 328 323 318 314 311 302 285 272 328 327 328 320 312 311 309 305 302 303 302 302 301 299 298 297 294 288 284 271 236 182 185 172 182 180 168 168 166 179 183 179 171 167 165 162 154 148 146 145 141 133 127 124 122 118 114 120 112 110 109
177 202 205 223 229 177 255 263 259 260 272 301 131 110 32 354 314 212 182 292 150 359 356 348 336 335 328 322 317 313 308 313 316 312 319 325 324 323 320 311 307 305 303 303 304 304 306 306 303 300 300 295 290 280 273 208 191 183 186 190 179 172 176 179 189 181 179 179 172 167 163 158 152 150 148 144 141 137 131 118 108 116 124 121 122 112
184 214 221 212 254 252 220 259 271 291 268 298 327 33 343 337 86 96 126 276 193 352 354 345 331 326 321 316 313 321 327 320 309 311 330 327 321 321 316 308 304 303 304 303 304 306 307 309 307 303 302 299 290 284 255 204 191 187 195 191 187 183 181 192 187 179 180 175 168 164 162 158 156 153 152 148 145 142 139 136 134 127 112 106 105 106
19 204 211 241 241 242 268 254 263 212 274 322 347 3 337 327 65 43 288 214 354 347 339 335 329 324 321 320 320 325 324 316 314 317 325 319 313 310 307 306 309 312 312 311 306 297 294 298 306 309 310 309 302 297 249 203 195 203 198 198 185 187 197 197 191 174 158 159 163 165 161 162 156 153 148 145 139 137 132 128 123 126 123 116 112 113
330 312 195 243 251 265 262 271 270 270 270 308 50 347 344 329 111 308 293 333 334 327 326 325 321 322 322 324 332 319 312 300 296 300 310 311 310 308 308 303 298 300 301 306 307 310 307 305 302 295 295 299 302 300 247 203 207 215 211 190 190 206 207 187 155 156 159 155 157 162 162 159 158 147 141 138 135 129 121 118 119 117 116 115 108 105
280 236 258 185 244 249 246 249 257 273 278 66 351 349 309 348 329 315 324 322 316 315 318 321 319 323 327 320 319 307 304 304 301 304 306 307 302 300 304 306 308 309 306 297 289 294 303 307 306 308 310 309 307 293 244 219 222 229 210 193 210 214 168 150 156 150 152 157 156 153 149 147 142 138 132 127 128 128 118 115 114 115 115 113 115 112
231 256 224 212 274 314 216 264 285 272 260 75 354 339 54 354 304 324 308 309 319 307 314 319 326 321 327 317 313 308 306 306 306 304 303 304 306 305 308 311 312 313 313 315 316 316 316 313 313 312 309 310 311 291 247 221 235 237 225 221 222 166 152 153 151 150 150 151 152 151 146 145 145 142 141 139 142 136 131 129 123 120 120 121 120 117
238 255 281 271 190 252 213 224 225 218 276 337 354 308 332 300 300 301 310 312 322 315 316 321 317 317 317 312 310 308 305 304 304 305 306 305 306 306 307 307 308 308 308 307 303 298 307 305 303 305 308 309 307 294 261 227 239 233 223 234 172 149 146 148 149 148 148 149 149 141 138 135 131 129 125 129 132 132 130 129 127 126 130 132 125 122
206 191 170 232 254 206 240 260 283 298 304 323 347 279 296 308 314 311 316 309 316 320 322 316 314 315 314 310 307 305 306 306 303 305 304 303 306 307 308 309 309 307 307 306 305 307 306 299 301 304 305 305 308 298 270 255 251 256 239 229 155 170 161 154 151 149 149 147 145 140 137 129 127 127 122 127 135 135 131 126 128 122 124 119 121 122
254 234 293 316 265 262 254 250 269 280 298 327 312 318 312 303 299 309 312 319 321 320 320 313 312 308 309 309 308 307 304 308 309 308 306 304 303 303 304 306 308 308 307 306 305 306 305 304 299 297 300 305 306 294 272 254 245 255 255 128 176 158 156 148 147 143 138 135 131 135 134 127 124 124 125 126 132 137 137 137 136 131 135 130 125 123
258 274 271 226 310 3 273 148 265 292 306 311 305 298 291 291 292 314 318 313 310 311 310 306 302 302 302 305 301 301 303 306 306 304 303 302 302 304 306 306 305 306 307 307 305 308 307 306 303 302 304 304 305 304 281 261 249 241 187 173 165 153 145 145 137 130 126 125 126 124 127 126 129 123 115 114 110 106 108 108 124 130 129 133 130 127
293 81 330 253 253 237 266 287 288 288 288 285 282 292 304 313 310 308 305 308 307 306 302 300 302 300 302 302 303 303 302 304 304 304 303 303 302 303 303 303 305 307 307 304 303 303 299 296 294 296 299 299 299 303 287 271 253 210 172 168 159 149 142 139 140 136 133 130 129 127 122 114 117 119 118 117 118 116 107 93 98 108 116 136 143 140
265 18 256 203 301 274 287 280 274 284 275 252 272 294 301 306 307 310 313 312 311 306 304 301 300 299 303 299 302 303 303 304 304 302 301 302 303 304 304 303 302 301 303 307 307 306 298 295 293 290 291 288 291 291 277 262 247 206 176 170 165 157 147 145 140 137 138 139 134 134 135 132 129 121 117 109 92 76 89 120 117 106 87 43 18 113
210 242 257 306 282 277 262 280 315 312 308 312 309 309 312 311 313 312 313 309 307 305 305 307 305 304 301 300 301 302 300 302 302 303 302 300 300 300 301 302 303 303 303 302 302 302 298 286 279 285 287 282 284 277 260 249 224 205 188 170 168 162 153 150 148 148 154 154 152 150 151 154 153 151 145 139 129 114 83 61 67 72 102 96 76 77
227 243 231 240 242 264 269 273 284 281 284 283 297 302 304 309 308 305 306 303 301 302 306 307 307 308 306 303 301 299 298 299 299 300 297 299 299 298 297 298 301 303 304 307 308 306 303 299 291 284 281 281 283 263 251 236 215 196 189 182 178 172 163 158 157 160 158 159 159 158 152 141 135 139 135 131 126 117 112 103 74 74 81 92 98 97